sat.trackr.live / text

‹ back to catalog

ONEWEB-0660

NORAD 55820 · 2023-029AA

PAYLOAD ACTIVE UNKNOWN

§ Identity

Operator
Country
UK
Launch date
2023-03-09
Launch site
AFETR
Launch vehicle
Mass (kg)
RCS (m²)

Purposes: comms

External: N2YO · Heavens-Above · Gunter

§ Orbital elements

Epoch: 2026-05-25T03:20:16.557792Z

Period
109.55 min
Inclination
87.8947°
Eccentricity
0.0001759
Mean motion
13.14501878 rev/d
Perigee alt
1,204.5 km
Apogee alt
1,207.1 km
Semi-major
7,583.9 km
B*
-5.1999e-4
RAAN
294.2928°
Arg perigee
86.6963°
Mean anomaly
273.4368°
Rev number
15,637

§ Raw data

ONEWEB-06601 55820U 23029AA  26145.13908053 -.00000180  00000+0 -51999-3 0  99992 55820  87.8947 294.2928 0001759  86.6963 273.4368 13.14501878156374

JSON: /api/v1/satellites/55820 · /tle

For live sub-satellite position, see the globe view (requires WebGL).

§ Visibility from observer

Set your observer location to see the next 7 days of passes ≥ 10°. The values pass through the URL so the page stays shareable.

No JS? Fill the form by hand. The geolocation button needs JavaScript.